QPF
0.07 0.03 0.02 0.01 0.01 0.01 0.02 0.04 0.04 0.04 0.05 0.06 0.08 0.09 0.10 0.10 0.10 0.09 0.07 0.06 0.06 0.05 0.04 0.04 0.03 0.02 0.02 0.02 0.02 0.02 0.02 0.03 0.03 0.03 0.03 0.02 0.01 0.01 0.01 0.01 0.01 0.01 0.01
0.10 0.05 0.02 0.02 0.01 0.02 0.02 0.04 0.06 0.05 0.05 0.06 0.07 0.08 0.09 0.09 0.10 0.10 0.08 0.06 0.06 0.06 0.05 0.04 0.04 0.03 0.02 0.02 0.03 0.02 0.02 0.04 0.04 0.04 0.04 0.03 0.03 0.02 0.01 0.01 0.01 0.01 0.01
0.12 0.09 0.04 0.03 0.02 0.01 0.02 0.03 0.05 0.08 0.06 0.05 0.05 0.06 0.08 0.08 0.08 0.07 0.07 0.06 0.07 0.07 0.06 0.05 0.03 0.03 0.02 0.02 0.03 0.03 0.03 0.03 0.04 0.04 0.04 0.04 0.03 0.03 0.03 0.02 0.01 0.01 0.01
0.13 0.12 0.07 0.04 0.03 0.01 0.02 0.02 0.03 0.06 0.07 0.05 0.04 0.05 0.06 0.07 0.07 0.07 0.06 0.06 0.06 0.06 0.06 0.05 0.03 0.02 0.02 0.02 0.03 0.03 0.03 0.03 0.03 0.04 0.03 0.03 0.03 0.02 0.03 0.02 0.02 0.01 0.02
0.13 0.14 0.10 0.05 0.04 0.03 0.02 0.02 0.03 0.06 0.06 0.06 0.06 0.05 0.05 0.06 0.07 0.07 0.08 0.08 0.08 0.06 0.06 0.05 0.03 0.02 0.02 0.02 0.02 0.03 0.04 0.04 0.03 0.03 0.03 0.03 0.03 0.03 0.03 0.03 0.02 0.02 0.02
0.11 0.14 0.13 0.07 0.05 0.04 0.02 0.02 0.02 0.05 0.05 0.05 0.06 0.06 0.05 0.06 0.06 0.07 0.07 0.08 0.09 0.08 0.06 0.06 0.04 0.03 0.02 0.02 0.02 0.03 0.04 0.05 0.04 0.04 0.05 0.04 0.04 0.04 0.04 0.04 0.03 0.03 0.02
0.08 0.10 0.13 0.10 0.06 0.05 0.04 0.02 0.02 0.04 0.06 0.06 0.06 0.07 0.06 0.05 0.05 0.05 0.06 0.06 0.07 0.07 0.07 0.06 0.04 0.04 0.03 0.03 0.02 0.03 0.04 0.05 0.06 0.05 0.05 0.05 0.04 0.04 0.04 0.04 0.04 0.03 0.03
0.04 0.07 0.10 0.11 0.08 0.05 0.05 0.04 0.03 0.03 0.05 0.06 0.07 0.07 0.07 0.07 0.06 0.05 0.06 0.05 0.06 0.07 0.07 0.06 0.04 0.03 0.03 0.03 0.02 0.02 0.03 0.04 0.05 0.06 0.05 0.04 0.04 0.04 0.04 0.04 0.04 0.04 0.03
0.03 0.05 0.06 0.08 0.09 0.06 0.05 0.04 0.04 0.04 0.05 0.05 0.06 0.07 0.06 0.06 0.07 0.07 0.07 0.06 0.05 0.06 0.07 0.05 0.05 0.03 0.03 0.03 0.02 0.02 0.02 0.04 0.05 0.06 0.05 0.04 0.04 0.04 0.04 0.04 0.04 0.03 0.03
0.02 0.04 0.04 0.06 0.08 0.07 0.05 0.04 0.04 0.04 0.05 0.05 0.05 0.05 0.06 0.05 0.06 0.09 0.10 0.08 0.06 0.06 0.06 0.05 0.05 0.05 0.03 0.02 0.02 0.02 0.02 0.03 0.04 0.05 0.05 0.04 0.04 0.04 0.05 0.04 0.04 0.03 0.03
0.02 0.03 0.04 0.03 0.05 0.06 0.06 0.05 0.04 0.05 0.05 0.05 0.06 0.06 0.06 0.05 0.05 0.07 0.10 0.09 0.06 0.05 0.05 0.05 0.05 0.06 0.05 0.02 0.02 0.02 0.02 0.02 0.03 0.04 0.04 0.05 0.05 0.05 0.05 0.04 0.03 0.03 0.03
0.02 0.02 0.05 0.04 0.03 0.04 0.06 0.06 0.05 0.05 0.05 0.05 0.06 0.07 0.07 0.06 0.06 0.06 0.07 0.07 0.05 0.04 0.04 0.04 0.06 0.06 0.05 0.03 0.02 0.02 0.02 0.02 0.02 0.02 0.03 0.04 0.05 0.06 0.06 0.04 0.03 0.03 0.04
0.02 0.02 0.04 0.05 0.04 0.04 0.04 0.05 0.05 0.06 0.05 0.05 0.06 0.08 0.08 0.07 0.06 0.06 0.06 0.05 0.04 0.03 0.03 0.03 0.04 0.05 0.04 0.04 0.02 0.02 0.02 0.03 0.04 0.03 0.03 0.04 0.06 0.09 0.07 0.04 0.03 0.04 0.04
0.02 0.01 0.02 0.05 0.06 0.05 0.04 0.04 0.05 0.06 0.06 0.07 0.08 0.09 0.09 0.08 0.07 0.06 0.04 0.03 0.03 0.03 0.03 0.03 0.03 0.03 0.03 0.03 0.04 0.03 0.02 0.03 0.04 0.05 0.05 0.06 0.08 0.08 0.06 0.04 0.03 0.04 0.04
0.02 0.02 0.01 0.03 0.05 0.07 0.06 0.05 0.05 0.05 0.05 0.06 0.09 0.11 0.14 0.13 0.09 0.06 0.04 0.02 0.03 0.03 0.03 0.03 0.02 0.02 0.02 0.03 0.04 0.04 0.03 0.04 0.04 0.04 0.05 0.06 0.08 0.08 0.06 0.04 0.03 0.04 0.04
0.03 0.02 0.02 0.02 0.03 0.05 0.07 0.06 0.05 0.04 0.05 0.05 0.06 0.09 0.13 0.13 0.12 0.10 0.07 0.05 0.03 0.03 0.03 0.02 0.02 0.01 0.01 0.02 0.03 0.04 0.05 0.05 0.04 0.04 0.04 0.04 0.05 0.05 0.04 0.03 0.03 0.03 0.04
0.04 0.03 0.03 0.03 0.03 0.04 0.05 0.05 0.04 0.04 0.04 0.05 0.06 0.07 0.09 0.09 0.08 0.07 0.07 0.07 0.05 0.03 0.03 0.02 0.01 0.02 0.01 0.02 0.03 0.04 0.04 0.04 0.04 0.05 0.04 0.04 0.03 0.04 0.04 0.03 0.03 0.04 0.04
0.07 0.06 0.05 0.05 0.05 0.05 0.04 0.04 0.03 0.04 0.04 0.05 0.06 0.07 0.06 0.06 0.07 0.07 0.05 0.04 0.04 0.03 0.03 0.03 0.02 0.02 0.02 0.02 0.03 0.04 0.04 0.03 0.03 0.04 0.04 0.04 0.03 0.03 0.04 0.04 0.04 0.04 0.04
0.05 0.06 0.06 0.06 0.05 0.05 0.04 0.03 0.03 0.03 0.04 0.04 0.05 0.05 0.04 0.04 0.06 0.06 0.05 0.04 0.03 0.03 0.03 0.03 0.03 0.02 0.03 0.03 0.03 0.04 0.04 0.04 0.03 0.03 0.03 0.03 0.03 0.03 0.03 0.03 0.05 0.05 0.05
0.04 0.04 0.04 0.04 0.04 0.04 0.04 0.04 0.04 0.04 0.04 0.04 0.04 0.04 0.03 0.03 0.03 0.04 0.05 0.05 0.04 0.03 0.03 0.04 0.04 0.04 0.03 0.03 0.04 0.04 0.04 0.05 0.05 0.05 0.04 0.03 0.03 0.03 0.02 0.03 0.03 0.05 0.05
0.03 0.03 0.03 0.04 0.05 0.05 0.05 0.05 0.05 0.04 0.04 0.04 0.04 0.04 0.03 0.03 0.03 0.03 0.04 0.04 0.04 0.04 0.03 0.04 0.04 0.04 0.04 0.04 0.05 0.05 0.05 0.05 0.05 0.05 0.04 0.04 0.03 0.02 0.02 0.02 0.03 0.04 0.05
0.04 0.03 0.03 0.04 0.05 0.05 0.07 0.07 0.06 0.05 0.05 0.05 0.05 0.05 0.04 0.03 0.03 0.03 0.02 0.02 0.03 0.03 0.03 0.04 0.04 0.04 0.04 0.04 0.04 0.04 0.04 0.04 0.04 0.03 0.03 0.03 0.04 0.04 0.03 0.02 0.03 0.03 0.04
0.04 0.04 0.03 0.04 0.04 0.05 0.07 0.07 0.07 0.05 0.05 0.05 0.05 0.05 0.04 0.04 0.03 0.02 0.02 0.03 0.04 0.04 0.03 0.04 0.04 0.04 0.04 0.03 0.03 0.03 0.03 0.03 0.03 0.03 0.03 0.03 0.03 0.04 0.04 0.04 0.04 0.03 0.03
0.06 0.05 0.04 0.04 0.04 0.04 0.05 0.06 0.06 0.06 0.05 0.05 0.05 0.04 0.04 0.04 0.03 0.03 0.02 0.03 0.03 0.03 0.03 0.02 0.02 0.03 0.03 0.03 0.03 0.03 0.03 0.02 0.02 0.02 0.03 0.04 0.03 0.04 0.04 0.05 0.05 0.04 0.04
0.08 0.07 0.05 0.04 0.04 0.05 0.05 0.06 0.06 0.06 0.06 0.06 0.05 0.04 0.03 0.03 0.04 0.04 0.03 0.03 0.03 0.03 0.03 0.03 0.02 0.02 0.02 0.02 0.03 0.03 0.03 0.02 0.02 0.02 0.03 0.04 0.03 0.03 0.04 0.05 0.05 0.05 0.05
0.07 0.06 0.05 0.05 0.05 0.05 0.06 0.05 0.05 0.05 0.06 0.06 0.06 0.05 0.05 0.04 0.04 0.04 0.03 0.03 0.03 0.03 0.03 0.03 0.02 0.01 0.01 0.01 0.01 0.02 0.03 0.02 0.02 0.02 0.02 0.03 0.03 0.04 0.05 0.04 0.04 0.05 0.05
MSLP
1006.62 1006.68 1006.93 1007.39 1008.09 1009.00 1010.07 1011.22 1012.36 1013.41 1014.30 1014.99 1015.50 1015.86 1016.13 1016.37 1016.64 1016.97 1017.37 1017.83 1018.33 1018.84 1019.32 1019.76 1020.15 1020.47 1020.75 1020.97 1021.14 1021.26 1021.31 1021.29 1021.21 1021.07 1020.88 1020.66 1020.43 1020.20 1019.97 1019.75 1019.52 1019.27 1018.98
1006.56 1006.54 1006.69 1007.06 1007.69 1008.57 1009.65 1010.85 1012.08 1013.23 1014.22 1015.03 1015.62 1016.05 1016.35 1016.59 1016.83 1017.12 1017.47 1017.88 1018.33 1018.80 1019.26 1019.68 1020.06 1020.40 1020.69 1020.93 1021.12 1021.25 1021.32 1021.31 1021.21 1021.05 1020.83 1020.56 1020.28 1019.99 1019.71 1019.44 1019.17 1018.90 1018.59
1006.49 1006.41 1006.49 1006.80 1007.38 1008.23 1009.32 1010.55 1011.84 1013.08 1014.17 1015.07 1015.76 1016.26 1016.61 1016.87 1017.10 1017.36 1017.66 1018.01 1018.40 1018.81 1019.21 1019.60 1019.95 1020.27 1020.56 1020.81 1021.01 1021.16 1021.25 1021.25 1021.16 1020.99 1020.74 1020.44 1020.10 1019.76 1019.43 1019.11 1018.81 1018.51 1018.19
1006.39 1006.27 1006.32 1006.61 1007.16 1008.00 1009.08 1010.34 1011.67 1012.97 1014.14 1015.12 1015.89 1016.46 1016.87 1017.17 1017.41 1017.66 1017.92 1018.22 1018.55 1018.89 1019.24 1019.56 1019.86 1020.15 1020.41 1020.65 1020.85 1021.02 1021.11 1021.13 1021.06 1020.89 1020.63 1020.31 1019.94 1019.56 1019.19 1018.83 1018.50 1018.18 1017.85
1006.24 1006.13 1006.19 1006.47 1007.03 1007.86 1008.95 1010.21 1011.56 1012.89 1014.10 1015.14 1015.97 1016.61 1017.08 1017.43 1017.71 1017.97 1018.23 1018.51 1018.79 1019.08 1019.35 1019.61 1019.85 1020.08 1020.30 1020.51 1020.69 1020.85 1020.96 1020.99 1020.92 1020.77 1020.52 1020.19 1019.82 1019.42 1019.02 1018.64 1018.29 1017.95 1017.63
1006.04 1005.96 1006.05 1006.37 1006.96 1007.81 1008.90 1010.16 1011.50 1012.82 1014.05 1015.11 1015.98 1016.67 1017.20 1017.61 1017.94 1018.24 1018.53 1018.81 1019.08 1019.33 1019.56 1019.76 1019.94 1020.11 1020.27 1020.43 1020.59 1020.72 1020.82 1020.85 1020.80 1020.66 1020.43 1020.12 1019.75 1019.36 1018.96 1018.57 1018.21 1017.87 1017.54
1005.77 1005.75 1005.91 1006.30 1006.94 1007.83 1008.93 1010.17 1011.49 1012.78 1013.97 1015.02 1015.90 1016.62 1017.19 1017.66 1018.06 1018.42 1018.76 1019.08 1019.36 1019.62 1019.83 1020.00 1020.13 1020.25 1020.36 1020.46 1020.57 1020.67 1020.75 1020.77 1020.73 1020.60 1020.39 1020.11 1019.77 1019.39 1019.01 1018.63 1018.27 1017.93 1017.59
1005.46 1005.51 1005.75 1006.23 1006.94 1007.88 1008.99 1010.23 1011.50 1012.74 1013.89 1014.89 1015.75 1016.47 1017.07 1017.58 1018.04 1018.47 1018.87 1019.25 1019.59 1019.88 1020.10 1020.28 1020.40 1020.49 1020.55 1020.62 1020.68 1020.74 1020.78 1020.79 1020.74 1020.62 1020.44 1020.18 1019.87 1019.53 1019.16 1018.80 1018.45 1018.11 1017.76
1005.13 1005.24 1005.59 1006.16 1006.96 1007.96 1009.10 1010.32 1011.55 1012.73 1013.80 1014.74 1015.55 1016.24 1016.83 1017.37 1017.88 1018.36 1018.84 1019.29 1019.70 1020.05 1020.33 1020.54 1020.68 1020.78 1020.83 1020.87 1020.91 1020.93 1020.94 1020.92 1020.85 1020.74 1020.56 1020.32 1020.04 1019.73 1019.39 1019.05 1018.71 1018.36 1018.00
1004.78 1004.98 1005.42 1006.10 1006.99 1008.05 1009.22 1010.43 1011.62 1012.73 1013.73 1014.59 1015.33 1015.97 1016.53 1017.07 1017.59 1018.12 1018.65 1019.17 1019.65 1020.08 1020.45 1020.73 1020.93 1021.07 1021.15 1021.20 1021.21 1021.21 1021.19 1021.14 1021.06 1020.93 1020.75 1020.53 1020.26 1019.97 1019.66 1019.33 1018.98 1018.62 1018.24
1004.47 1004.74 1005.27 1006.04 1007.01 1008.13 1009.33 1010.54 1011.70 1012.75 1013.67 1014.46 1015.12 1015.69 1016.21 1016.72 1017.23 1017.77 1018.33 1018.91 1019.46 1019.98 1020.43 1020.80 1021.09 1021.30 1021.44 1021.52 1021.56 1021.55 1021.51 1021.44 1021.32 1021.17 1020.98 1020.75 1020.50 1020.21 1019.91 1019.58 1019.24 1018.86 1018.46
1004.18 1004.52 1005.13 1005.98 1007.02 1008.19 1009.42 1010.63 1011.76 1012.77 1013.63 1014.35 1014.94 1015.44 1015.91 1016.37 1016.85 1017.38 1017.95 1018.56 1019.16 1019.75 1020.29 1020.76 1021.15 1021.46 1021.68 1021.82 1021.89 1021.90 1021.85 1021.75 1021.61 1021.43 1021.22 1020.98 1020.71 1020.43 1020.13 1019.80 1019.45 1019.05 1018.62
1003.94 1004.33 1004.99 1005.90 1006.99 1008.20 1009.45 1010.66 1011.78 1012.76 1013.58 1014.25 1014.79 1015.24 1015.65 1016.06 1016.51 1017.01 1017.57 1018.18 1018.82 1019.46 1020.07 1020.64 1021.12 1021.53 1021.83 1022.05 1022.17 1022.21 1022.16 1022.05 1021.89 1021.68 1021.44 1021.17 1020.89 1020.60 1020.29 1019.96 1019.60 1019.19 1018.73
1003.72 1004.15 1004.86 1005.80 1006.92 1008.15 1009.40 1010.62 1011.73 1012.70 1013.50 1014.14 1014.66 1015.08 1015.47 1015.85 1016.26 1016.73 1017.27 1017.87 1018.52 1019.18 1019.85 1020.48 1021.05 1021.54 1021.93 1022.21 1022.39 1022.46 1022.43 1022.31 1022.13 1021.89 1021.62 1021.33 1021.03 1020.73 1020.41 1020.08 1019.71 1019.29 1018.81
1003.53 1003.99 1004.72 1005.68 1006.81 1008.03 1009.29 1010.50 1011.61 1012.57 1013.37 1014.03 1014.55 1014.98 1015.36 1015.73 1016.13 1016.58 1017.10 1017.69 1018.33 1019.00 1019.69 1020.36 1020.99 1021.54 1022.00 1022.34 1022.57 1022.66 1022.65 1022.53 1022.32 1022.06 1021.76 1021.45 1021.13 1020.82 1020.50 1020.16 1019.79 1019.37 1018.89
1003.35 1003.84 1004.59 1005.55 1006.67 1007.89 1009.13 1010.33 1011.43 1012.40 1013.23 1013.91 1014.46 1014.93 1015.34 1015.74 1016.15 1016.60 1017.11 1017.68 1018.31 1018.99 1019.68 1020.37 1021.02 1021.61 1022.10 1022.48 1022.73 1022.85 1022.84 1022.71 1022.49 1022.21 1021.89 1021.55 1021.22 1020.89 1020.57 1020.24 1019.87 1019.46 1018.97
1003.20 1003.73 1004.50 1005.46 1006.57 1007.77 1008.99 1010.17 1011.26 1012.24 1013.09 1013.81 1014.42 1014.95 1015.42 1015.87 1016.32 1016.80 1017.32 1017.90 1018.52 1019.18 1019.86 1020.54 1021.19 1021.79 1022.29 1022.68 1022.94 1023.06 1023.04 1022.91 1022.67 1022.37 1022.03 1021.67 1021.32 1020.99 1020.66 1020.33 1019.97 1019.55 1019.06
1003.11 1003.70 1004.50 1005.47 1006.57 1007.74 1008.93 1010.09 1011.17 1012.15 1013.02 1013.78 1014.45 1015.05 1015.59 1016.11 1016.63 1017.16 1017.71 1018.30 1018.92 1019.58 1020.24 1020.90 1021.53 1022.11 1022.59 1022.97 1023.22 1023.33 1023.30 1023.15 1022.89 1022.57 1022.21 1021.84 1021.47 1021.12 1020.79 1020.45 1020.08 1019.66 1019.16
1003.12 1003.78 1004.62 1005.62 1006.72 1007.87 1009.04 1010.16 1011.22 1012.20 1013.08 1013.87 1014.59 1015.25 1015.87 1016.47 1017.05 1017.64 1018.24 1018.86 1019.49 1020.14 1020.79 1021.43 1022.03 1022.57 1023.03 1023.38 1023.60 1023.68 1023.63 1023.46 1023.19 1022.85 1022.47 1022.07 1021.69 1021.32 1020.96 1020.60 1020.22 1019.78 1019.27
1003.25 1004.00 1004.92 1005.95 1007.07 1008.21 1009.35 1010.44 1011.47 1012.43 1013.31 1014.12 1014.87 1015.58 1016.26 1016.92 1017.57 1018.22 1018.87 1019.52 1020.17 1020.82 1021.46 1022.07 1022.64 1023.15 1023.57 1023.88 1024.07 1024.13 1024.05 1023.86 1023.57 1023.21 1022.81 1022.39 1021.98 1021.59 1021.20 1020.81 1020.39 1019.92 1019.37
1003.53 1004.40 1005.40 1006.49 1007.62 1008.76 1009.88 1010.94 1011.94 1012.87 1013.73 1014.53 1015.29 1016.03 1016.75 1017.46 1018.16 1018.85 1019.54 1020.22 1020.89 1021.55 1022.18 1022.77 1023.31 1023.78 1024.16 1024.44 1024.60 1024.63 1024.54 1024.33 1024.03 1023.66 1023.24 1022.80 1022.36 1021.93 1021.51 1021.07 1020.60 1020.08 1019.49
1003.97 1004.96 1006.05 1007.19 1008.36 1009.50 1010.60 1011.63 1012.59 1013.48 1014.31 1015.10 1015.85 1016.59 1017.32 1018.05 1018.78 1019.50 1020.22 1020.92 1021.60 1022.26 1022.88 1023.45 1023.97 1024.41 1024.76 1025.01 1025.15 1025.16 1025.05 1024.84 1024.53 1024.15 1023.73 1023.28 1022.82 1022.35 1021.88 1021.39 1020.87 1020.29 1019.64
1004.56 1005.66 1006.83 1008.02 1009.21 1010.36 1011.44 1012.45 1013.37 1014.23 1015.03 1015.78 1016.52 1017.24 1017.96 1018.69 1019.42 1020.15 1020.87 1021.58 1022.26 1022.91 1023.52 1024.07 1024.57 1024.99 1025.31 1025.54 1025.66 1025.66 1025.55 1025.34 1025.04 1024.67 1024.25 1023.80 1023.32 1022.83 1022.32 1021.78 1021.21 1020.57 1019.86
1005.26 1006.46 1007.69 1008.92 1010.11 1011.26 1012.32 1013.30 1014.20 1015.03 1015.80 1016.53 1017.24 1017.94 1018.64 1019.36 1020.07 1020.78 1021.49 1022.18 1022.85 1023.48 1024.07 1024.60 1025.07 1025.47 1025.77 1025.98 1026.08 1026.08 1025.98 1025.78 1025.50 1025.15 1024.75 1024.31 1023.84 1023.34 1022.81 1022.24 1021.62 1020.93 1020.18
1006.04 1007.30 1008.56 1009.80 1010.99 1012.12 1013.16 1014.12 1015.00 1015.81 1016.56 1017.28 1017.97 1018.66 1019.35 1020.03 1020.72 1021.41 1022.09 1022.75 1023.38 1023.98 1024.54 1025.04 1025.48 1025.84 1026.12 1026.31 1026.40 1026.40 1026.31 1026.13 1025.88 1025.56 1025.19 1024.78 1024.33 1023.85 1023.32 1022.74 1022.10 1021.39 1020.60
1006.88 1008.16 1009.43 1010.64 1011.80 1012.90 1013.91 1014.85 1015.72 1016.52 1017.28 1018.00 1018.70 1019.38 1020.06 1020.73 1021.39 1022.04 1022.68 1023.30 1023.89 1024.44 1024.95 1025.41 1025.80 1026.13 1026.38 1026.54 1026.62 1026.62 1026.53 1026.37 1026.15 1025.87 1025.55 1025.18 1024.78 1024.32 1023.82 1023.26 1022.63 1021.92 1021.14
Thickness
5643 5644 5646 5647 5648 5649 5650 5651 5652 5653 5655 5657 5658 5658 5659 5660 5661 5660 5660 5660 5660 5660 5659 5659 5658 5658 5657 5656 5655 5654 5653 5652 5650 5649 5648 5647 5645 5644 5643 5641 5640 5639 5638
5633 5635 5637 5638 5639 5640 5641 5643 5644 5644 5646 5648 5649 5650 5651 5651 5652 5652 5651 5651 5652 5651 5652 5651 5651 5651 5651 5649 5649 5648 5646 5645 5644 5643 5641 5640 5639 5638 5636 5635 5633 5632 5632
5623 5626 5627 5628 5630 5631 5632 5633 5635 5636 5637 5639 5640 5641 5642 5642 5643 5643 5643 5643 5643 5643 5644 5644 5644 5643 5643 5643 5642 5641 5640 5639 5637 5636 5635 5633 5633 5631 5630 5628 5627 5626 5625
5614 5615 5617 5619 5621 5622 5623 5624 5625 5626 5627 5629 5631 5632 5632 5633 5634 5634 5634 5634 5634 5634 5635 5635 5635 5636 5636 5635 5634 5634 5632 5631 5630 5629 5628 5627 5626 5624 5623 5622 5620 5619 5618
5603 5605 5607 5609 5611 5613 5614 5615 5616 5617 5618 5619 5621 5622 5623 5623 5623 5624 5624 5625 5624 5625 5626 5626 5626 5627 5627 5627 5626 5625 5624 5624 5623 5622 5621 5620 5619 5617 5616 5614 5613 5612 5611
5593 5595 5596 5598 5601 5603 5603 5604 5605 5607 5608 5609 5611 5612 5613 5614 5613 5613 5614 5614 5615 5615 5616 5617 5617 5617 5617 5617 5617 5616 5616 5616 5615 5614 5614 5612 5611 5610 5608 5607 5606 5605 5604
5583 5584 5586 5588 5590 5592 5593 5594 5595 5595 5597 5598 5599 5600 5603 5604 5604 5604 5604 5604 5604 5605 5606 5607 5607 5607 5608 5608 5608 5608 5608 5607 5607 5607 5606 5604 5603 5602 5601 5600 5598 5597 5596
5574 5575 5577 5578 5579 5581 5582 5584 5584 5584 5585 5586 5586 5587 5589 5591 5593 5595 5594 5595 5595 5595 5596 5597 5597 5598 5598 5599 5598 5598 5599 5599 5599 5599 5598 5597 5596 5595 5594 5592 5591 5590 5589
5565 5566 5567 5568 5569 5569 5571 5572 5574 5574 5574 5575 5576 5575 5575 5578 5579 5584 5585 5586 5586 5585 5586 5586 5587 5588 5589 5589 5590 5589 5589 5589 5590 5591 5591 5589 5588 5587 5586 5584 5583 5582 5581
5555 5556 5558 5559 5559 5559 5560 5561 5562 5563 5564 5564 5566 5567 5567 5568 5567 5570 5575 5576 5576 5575 5574 5575 5577 5578 5579 5580 5580 5580 5580 5581 5582 5582 5582 5581 5580 5579 5578 5577 5575 5574 5573
5545 5546 5548 5548 5549 5550 5551 5551 5552 5553 5554 5555 5556 5557 5558 5559 5559 5559 5561 5565 5565 5564 5564 5565 5567 5569 5570 5570 5571 5571 5571 5572 5573 5573 5573 5573 5572 5571 5570 5568 5567 5566 5565
5536 5537 5538 5539 5540 5541 5542 5542 5543 5544 5545 5546 5547 5548 5549 5549 5550 5551 5551 5553 5554 5555 5556 5557 5558 5559 5560 5560 5561 5561 5562 5562 5563 5563 5564 5564 5563 5562 5561 5560 5558 5558 5557
5528 5529 5530 5531 5532 5532 5533 5534 5534 5535 5537 5537 5538 5540 5542 5542 5543 5543 5542 5542 5544 5546 5548 5548 5549 5550 5551 5550 5551 5552 5553 5553 5554 5554 5554 5555 5554 5553 5552 5550 5550 5549 5548
5521 5522 5523 5523 5524 5524 5525 5526 5526 5528 5529 5529 5530 5532 5534 5534 5534 5535 5534 5534 5534 5536 5539 5540 5540 5540 5540 5540 5541 5543 5543 5544 5545 5545 5545 5545 5545 5544 5543 5542 5541 5540 5539
5515 5515 5516 5516 5516 5516 5517 5518 5518 5519 5520 5521 5522 5523 5525 5526 5527 5527 5527 5527 5526 5526 5529 5530 5530 5531 5531 5531 5532 5533 5534 5535 5535 5535 5536 5536 5535 5535 5534 5533 5532 5531 5530
5508 5508 5508 5509 5508 5509 5509 5509 5509 5511 5512 5513 5515 5516 5517 5519 5519 5519 5519 5519 5519 5519 5519 5521 5521 5522 5522 5522 5523 5524 5525 5526 5526 5526 5526 5526 5526 5526 5524 5524 5523 5522 5521
5500 5501 5501 5501 5501 5501 5501 5501 5501 5503 5504 5506 5507 5509 5510 5511 5511 5511 5510 5510 5510 5510 5509 5511 5511 5512 5513 5513 5514 5514 5515 5516 5516 5516 5517 5517 5517 5517 5516 5515 5514 5514 5513
5492 5493 5493 5494 5493 5494 5493 5493 5494 5495 5497 5498 5499 5501 5501 5502 5502 5502 5501 5501 5501 5502 5502 5502 5503 5503 5503 5505 5505 5505 5505 5506 5507 5507 5509 5508 5508 5508 5508 5507 5506 5506 5505
5485 5485 5485 5485 5486 5485 5485 5486 5487 5488 5490 5490 5491 5492 5494 5494 5493 5493 5493 5493 5493 5494 5494 5493 5493 5493 5494 5495 5495 5495 5496 5496 5497 5499 5500 5499 5499 5499 5499 5498 5498 5497 5497
5477 5477 5477 5477 5477 5477 5477 5478 5479 5480 5481 5482 5484 5485 5485 5486 5486 5485 5485 5485 5485 5485 5485 5485 5484 5484 5484 5484 5484 5485 5486 5487 5488 5490 5490 5489 5489 5489 5489 5489 5490 5489 5489
5470 5469 5469 5469 5468 5468 5469 5470 5471 5473 5473 5474 5475 5476 5477 5477 5478 5478 5478 5477 5477 5476 5476 5475 5475 5474 5474 5474 5473 5473 5475 5477 5479 5479 5480 5479 5479 5480 5480 5480 5480 5480 5480
5462 5461 5461 5460 5460 5461 5462 5463 5464 5465 5466 5467 5467 5467 5468 5469 5469 5469 5469 5469 5469 5468 5467 5466 5465 5465 5464 5464 5464 5464 5465 5467 5469 5470 5469 5470 5471 5471 5472 5471 5471 5471 5471
5454 5453 5453 5452 5452 5452 5454 5456 5456 5456 5457 5458 5459 5459 5460 5460 5460 5459 5459 5459 5459 5459 5459 5458 5456 5456 5456 5456 5455 5456 5456 5457 5457 5458 5459 5462 5463 5463 5463 5462 5463 5463 5463
5445 5445 5444 5444 5443 5444 5446 5447 5447 5447 5448 5449 5450 5451 5451 5450 5450 5450 5450 5449 5448 5448 5449 5449 5448 5448 5447 5447 5447 5447 5447 5448 5449 5449 5450 5451 5454 5454 5456 5455 5455 5456 5456
5437 5436 5436 5435 5435 5435 5437 5438 5438 5438 5439 5440 5441 5441 5442 5441 5442 5442 5441 5440 5439 5439 5439 5439 5439 5439 5439 5439 5439 5439 5438 5439 5439 5440 5440 5440 5443 5445 5448 5448 5448 5448 5449
5429 5428 5427 5426 5426 5426 5427 5428 5429 5430 5430 5431 5432 5432 5433 5433 5433 5433 5432 5431 5431 5431 5431 5431 5430 5430 5430 5430 5431 5430 5429 5429 5429 5429 5431 5431 5432 5434 5438 5441 5441 5441 5442